This demonstration page uses our WeatherBlox Daily Observations layout. Learn more.

Left ArrowRight Arrow

39.92423, -83.80882

Hourly Observations for January 9, 2022

Temp ( °F °C ) Dew Point ( °F °C ) Humidity (%) Winds ( mph kmh ) Pressure ( in mb ) Visibility ( mi km ) Precip ( " mm )
12:56 am 00:56 Cloudy with Rain 39 3.9 39 3.9 100 100 SSW 14 22 30.09 1019 9 14 0.00 0.00
1:46 am 01:46 Cloudy with Light Rain 39 4 39 4 100 100 SSW 16 26 30.07 1018 10 16 0.00 0.00
1:56 am 01:56 Cloudy with Light Rain 40 4.4 40 4.4 100 100 SSW 15 24 30.06 1018 10 16 0.00 0.00
2:17 am 02:17 Cloudy with Light Rain 41 5 41 5 100 100 SSW 20 31 30.04 1017 10 16 0.00 0.00
2:56 am 02:56 Cloudy with Heavy Rain 39 4 N/A N/A SSW 17 28 30.03 1017 5 8 0.00 0.00
3:56 am 03:56 Cloudy with Rain 39 4 N/A N/A SW 17 28 30.04 1017 9 14 0.00 0.00
4:10 am 04:10 Cloudy with Rain 39 4 N/A N/A SW 17 28 30.06 1018 8 13 0.00 0.00
4:56 am 04:56 Cloudy with Rain 39 4 N/A N/A WSW 13 20 30.09 1019 8 13 0.00 0.00
5:19 am 05:19 Cloudy with Rain 39 4 N/A N/A WSW 12 19 30.10 1019 6 10 0.00 0.00
5:56 am 05:56 Cloudy with Light Rain 39 4 N/A N/A SW 14 22 30.09 1019 9 14 0.00 0.00
6:56 am 06:56 Cloudy 39 4 N/A N/A SW 15 24 30.07 1018 10 16 0.00 0.00
7:44 am 07:44 Cloudy with Light Rain 41 5 N/A N/A SW 15 24 30.08 1019 10 16 0.00 0.00
7:50 am 07:50 Cloudy 41 5 N/A N/A SW 12 19 30.09 1019 10 16 0.00 0.00
7:56 am 07:56 Cloudy 41 5 N/A N/A SW 13 20 30.08 1019 10 16 0.00 0.00
8:56 am 08:56 Cloudy 41 5 N/A N/A WSW 12 19 30.10 1019 10 16 0.00 0.00
9:56 am 09:56 Cloudy with Haze 43 6 N/A N/A W 15 24 30.11 1020 5 8 0.00 0.00
10:17 am 10:17 Cloudy with Mist and Fog 43 6 N/A N/A W 15 24 30.12 1020 3 4 0.00 0.00
10:47 am 10:47 Cloudy with Mist and Fog 41 5 N/A N/A W 15 24 30.13 1020 3 5 0.00 0.00
10:56 am 10:56 Cloudy 41 5 N/A N/A W 16 26 30.13 1020 7 11 0.00 0.00
11:38 am 11:38 Cloudy 39 4 N/A N/A WNW 17 28 30.16 1021 10 16 0.00 0.00
11:56 am 11:56 Cloudy 39 4 N/A N/A WNW 22 35 30.15 1021 10 16 0.00 0.00
12:13 pm 12:13 Cloudy 37 3 37 3 100 100 WNW 18 30 30.17 1022 10 16 0.00 0.00
12:37 pm 12:37 Cloudy 36 2 N/A N/A WNW 18 30 30.20 1023 9 14 0.00 0.00
12:56 pm 12:56 Cloudy 36 2.2 36 2.2 100 100 NW 17 28 30.18 1022 10 16 0.00 0.00
1:07 pm 13:07 Cloudy 36 2 36 2 100 100 NW 14 22 30.21 1023 10 16 0.00 0.00
1:49 pm 13:49 Partly Cloudy 36 2 34 1 93 93 NW 16 26 30.21 1023 10 16 0.00 0.00
1:56 pm 13:56 Mostly Sunny 36 2.2 32 0 86 86 NW 16 26 30.19 1022 10 16 0.00 0.00
2:56 pm 14:56 Mostly Sunny 36 2.2 31 -0.6 82 82 WNW 22 35 30.22 1023 10 16 0.00 0.00
3:56 pm 15:56 Mostly Sunny 35 1.7 28 -2.2 76 76 NW 16 26 30.25 1024 10 16 0.00 0.00
4:56 pm 16:56 Sunny 33 0.6 24 -4.4 70 70 NW 15 24 30.29 1026 10 16 0.00 0.00
5:56 pm 17:56 Clear 31 -0.6 18 -7.8 59 59 WNW 25 41 30.33 1027 10 16 0.00 0.00
6:56 pm 18:56 Clear 29 -1.7 14 -10 54 54 NW 16 26 30.39 1029 10 16 0.00 0.00
7:56 pm 19:56 Clear 27 -2.8 13 -10.6 55 55 NW 15 24 30.42 1030 10 16 0.00 0.00
8:56 pm 20:56 Clear 25 -3.9 13 -10.6 60 60 NW 15 24 30.45 1031 10 16 0.00 0.00
9:56 pm 21:56 Clear 23 -5 15 -9.4 72 72 NW 6 9 30.47 1032 10 16 0.00 0.00
10:56 pm 22:56 Clear 22 -5.6 16 -8.9 78 78 NW 9 15 30.47 1032 10 16 0.00 0.00
11:56 pm 23:56 Clear 21 -6.1 16 -8.9 81 81 WNW 8 13 30.48 1032 10 16 0.00 0.00

Powered by AerisWeather